[[{"header":{"parameterUnit":"m.s-1","parameterCategory":1,"la1":30.2991,"la2":30.254,"lo1":-89.0895,"lo2":-89.0444,"dy":0.0017,"dx":0.0017,"nx":28,"ny":28,"refTime":"2024-06-26T03:00:00:Z","depth":0,"parameterNumber":2,"parameterNumberName":"U-component_of_WINDS"},"data":[0,0,0,0,0,0,0,0,0,0,0,0,0,0,0,0,0,0,0,0,0,0,0,0,0,0,0,0,0,0,0,0,0,0,0,0,0,0,0,0,0,0,0,0,0,0,0,0,0,0,0,0,0,0,0,0,0,0,3.1583,3.1583,0,3.1667,3.1668,3.1669,3.1632,3.163,3.1628,3.1626,3.1716,3.1721,3.1725,0,0,0,0,0,0,0,0,0,0,0,0,0,3.1393,3.1397,3.1582,3.1584,3.1585,3.1667,3.1668,3.1669,3.1632,3.163,3.1627,3.1625,3.1715,3.172,3.1725,0,0,0,0,0,0,0,0,0,0,0,0,0,3.1476,3.1398,3.1582,3.1576,3.1576,3.1667,3.1668,3.167,3.1633,3.163,3.1626,3.1624,3.1713,3.172,3.1726,3.1829,0,0,3.1746,3.1749,0,0,0,0,0,0,0,0,3.1472,3.1483,3.1576,3.1577,3.1577,3.1636,3.1635,3.1723,3.1634,3.1611,3.1626,3.1622,3.1692,3.17,3.1723,3.1833,3.1837,3.1747,3.1751,3.1754,3.1755,0,0,0,0,0,0,0,3.1466,3.1479,3.1616,3.1577,3.1578,3.157,3.1579,3.1651,3.1669,3.1613,3.1611,3.1621,3.1692,3.1717,3.1725,3.1839,3.1747,3.1752,3.1756,3.1759,3.2037,3.2041,0,0,0,0,0,0,3.146,3.1475,3.1613,3.1619,3.1515,3.1576,3.1585,3.162,3.1668,3.1672,3.1623,3.1619,3.1707,3.1718,3.1728,3.1851,3.1753,3.176,3.1763,3.2034,3.2038,3.2042,0,0,0,0,0,0,3.1456,3.1472,3.161,3.1546,3.1563,3.1583,3.1622,3.1623,3.1648,3.1675,3.1679,3.1645,3.1705,3.1719,3.1804,3.1853,3.1763,3.1768,3.203,3.2035,3.204,3.2097,0,0,0,0,0,0,3.145,3.1471,3.1509,3.1547,3.1567,3.1683,3.1625,3.1627,3.1659,3.1654,3.1697,3.1701,3.1704,3.1794,3.181,3.1861,3.1774,3.2025,3.2032,3.2038,3.2091,3.2104,3.2115,0,0,0,0,0,3.1444,3.1523,3.1511,3.1528,3.1614,3.1686,3.1697,3.1697,3.1663,3.1702,3.172,3.17,3.1846,3.1803,3.1821,3.1874,3.2022,3.203,3.2038,3.2086,3.2101,3.2115,0,0,0,0,0,0,3.1491,3.1528,3.1515,3.1609,3.1644,3.1679,3.1728,3.1714,3.1761,3.1754,3.1755,3.1765,3.1852,3.1872,3.1824,3.1977,3.1929,3.1941,3.1959,3.1975,3.1986,3.1978,3.1779,0,0,0,0,0,3.1513,3.1566,3.1596,3.1676,3.1694,3.1709,3.174,3.1737,3.1774,3.179,3.1813,3.1852,3.1906,3.1942,3.1994,3.2095,3.2104,3.2141,3.2152,3.2162,3.2171,3.2226,3.2242,3.2068,3.2068,3.2067,0,0,3.1557,3.1584,3.1618,3.1686,3.1713,3.177,3.1721,3.1783,3.1825,3.18,3.188,3.1899,3.1942,3.2035,3.2078,3.2055,3.2222,3.2172,3.2179,3.2184,3.2235,3.2252,3.2266,3.2073,3.2072,3.2071,0,0,3.1667,3.1693,3.1761,3.179,3.1831,3.184,3.1857,3.1895,3.1906,3.1987,3.1968,3.202,3.2114,3.2145,3.2173,3.2296,3.2278,3.2313,3.2374,3.2427,3.2441,3.2453,3.2495,3.251,3.2323,3.2323,3.2323,0,3.1717,3.18,3.1799,3.1862,3.1893,3.1871,3.1941,3.197,3.2027,3.2049,3.2022,3.2139,3.2167,3.2266,3.2296,3.2321,3.234,3.2307,3.2439,3.2451,3.2462,3.2502,3.2519,3.2327,3.2326,3.2326,3.2326,0,3.1859,3.1917,3.1968,3.2022,3.2059,3.2125,3.2135,3.2173,3.2168,3.2181,3.2264,3.2297,3.2354,3.2378,3.2375,3.2478,3.2462,3.2438,3.2389,3.2482,3.252,3.2536,3.2332,3.2331,3.233,3.2329,0,0,3.1998,3.2051,3.207,3.2094,3.2139,3.2184,3.2251,3.2306,3.2338,3.2379,3.2434,3.2515,3.2492,3.2524,3.2524,3.2571,3.2665,3.2541,3.2542,3.2561,3.2779,3.2795,3.2813,3.2655,3.2658,3.266,3.2775,0,3.2109,3.2223,3.2225,3.233,3.2383,3.2365,3.2423,3.2458,3.2472,3.252,3.2537,3.2593,3.256,3.2579,3.2625,3.2644,3.2708,3.2636,3.2706,3.2709,3.2693,3.2833,3.2851,3.2957,3.279,3.2793,3.2794,0,3.2253,3.2296,3.2406,3.2444,3.2466,3.2518,3.2568,3.2615,3.2655,3.2662,3.2698,3.2692,3.2761,3.2713,3.2807,3.2758,3.2788,3.2802,3.2806,3.281,3.2755,3.2839,3.2991,3.3006,3.2818,3.2816,3.2814,0,3.234,3.2428,3.2504,3.2526,3.2572,3.2608,3.263,3.2666,3.2699,3.2745,3.2766,3.282,3.2849,3.2891,3.2899,3.2864,3.2994,3.2947,3.3002,3.3001,3.3027,3.3025,3.3183,3.3051,3.3051,3.3051,3.305,0,3.2462,3.253,3.2544,3.2591,3.2666,3.267,3.2745,3.2763,3.2796,3.2847,3.2837,3.2885,3.2894,3.2945,3.2953,3.303,3.3044,3.3051,3.3052,3.3051,3.3049,3.3068,3.306,3.3055,3.3054,3.3053,3.3052,0,3.2571,3.2584,3.2666,3.2703,3.2714,3.2768,3.28,3.2846,3.2859,3.2924,3.294,3.2962,3.3021,3.3034,3.3106,3.3111,3.3201,3.3196,3.3187,3.3186,3.3239,3.3233,3.3412,3.3435,3.329,3.3292,3.3293,0,3.2646,3.2698,3.274,3.2773,3.2796,3.2849,3.2882,3.2889,3.2924,3.2974,3.3014,3.3072,3.3118,3.3214,3.3237,3.3292,3.3286,3.3346,3.3294,3.3291,3.3285,3.328,3.3285,3.3355,3.3356,3.3358,3.3359,0,3.2778,3.2782,3.283,3.2881,3.2921,3.2962,3.3,3.3028,3.304,3.3081,3.3141,3.3177,3.3249,3.3307,3.3362,3.3385,3.3374,3.3375,3.339,3.3388,3.3379,3.3382,3.3211,3.337,3.3369,3.3368,3.3367,3.3367,3.2871,3.2916,3.2952,3.3006,3.3036,3.3073,3.3117,3.3136,3.3186,3.3244,3.3246,3.3311,3.3351,3.3423,3.345,3.3502,3.3483,3.3506,3.3511,3.3516,3.3519,3.3373,3.3512,3.3512,3.3512,3.3511,3.3511,0,3.3,3.3023,3.3073,3.3127,3.317,3.3156,3.3199,3.3235,3.3292,3.333,3.3376,3.3445,3.3501,3.3529,3.3585,3.3622,3.3618,3.3636,3.3632,3.3637,3.3534,3.3514,3.3638,3.3638,3.3638,3.3638,3.3638,3.3638,3.3072,3.3146,3.3155,3.3244,3.3267,3.333,3.3355,3.3389,3.3419,3.3496,3.3542,3.356,3.3594,3.3653,3.3704,3.3711,3.3731,3.3751,3.3756,3.3658,3.3645,3.3632,3.3613,3.3756,3.3756,3.3854,3.3855,3.3856]},{"header":{"parameterUnit":"m.s-1","parameterCategory":1,"la1":30.2991,"la2":30.254,"lo1":-89.0895,"lo2":-89.0444,"dy":0.0017,"dx":0.0017,"nx":28,"ny":28,"refTime":"2024-06-26T03:00:00:Z","depth":0,"parameterNumber":3,"parameterNumberName":"V-component_of_WINDS"},"data":[0,0,0,0,0,0,0,0,0,0,0,0,0,0,0,0,0,0,0,0,0,0,0,0,0,0,0,0,0,0,0,0,0,0,0,0,0,0,0,0,0,0,0,0,0,0,0,0,0,0,0,0,0,0,0,0,0,0,3.288,3.288,0,3.2921,3.2921,3.2921,3.2932,3.2932,3.2932,3.2932,3.2968,3.297,3.2971,0,0,0,0,0,0,0,0,0,0,0,0,0,3.2806,3.2807,3.288,3.288,3.2881,3.292,3.2921,3.2922,3.2932,3.2932,3.2932,3.2931,3.2968,3.297,3.2971,0,0,0,0,0,0,0,0,0,0,0,0,0,3.2841,3.2808,3.288,3.2891,3.2892,3.292,3.2921,3.2922,3.2932,3.2932,3.2932,3.2931,3.2968,3.2969,3.2971,3.2989,0,0,3.2977,3.2977,0,0,0,0,0,0,0,0,3.2839,3.2844,3.2889,3.289,3.2892,3.2921,3.2909,3.2944,3.2932,3.2917,3.2932,3.2931,3.2953,3.2956,3.2964,3.2991,3.2993,3.2977,3.2978,3.2979,3.2979,0,0,0,0,0,0,0,3.2837,3.2842,3.2896,3.2889,3.2891,3.2892,3.2897,3.2915,3.2936,3.2918,3.2919,3.2924,3.2953,3.2962,3.2965,3.2993,3.2977,3.2978,3.2979,3.298,3.3036,3.3036,0,0,0,0,0,0,3.2833,3.284,3.2894,3.2897,3.2864,3.2894,3.2899,3.2912,3.2936,3.2939,3.2924,3.2925,3.2959,3.2963,3.2966,3.2989,3.2979,3.298,3.2981,3.3036,3.3036,3.3036,0,0,0,0,0,0,3.2831,3.2838,3.2893,3.2869,3.2876,3.2896,3.291,3.2913,3.2922,3.2941,3.2944,3.293,3.2959,3.2964,3.2984,3.299,3.2981,3.2983,3.3035,3.3036,3.3036,3.3033,0,0,0,0,0,0,3.2829,3.2837,3.2846,3.2869,3.2877,3.2911,3.291,3.2914,3.2925,3.2926,3.2947,3.295,3.2959,3.2981,3.2985,3.2992,3.2984,3.3035,3.3035,3.3036,3.3033,3.3034,3.3035,0,0,0,0,0,3.2827,3.2842,3.2846,3.2852,3.2888,3.2911,3.2916,3.2928,3.2926,3.2934,3.2946,3.2949,3.2989,3.2983,3.2988,3.2995,3.3034,3.3035,3.3036,3.3033,3.3034,3.3035,0,0,0,0,0,0,3.2817,3.2845,3.285,3.2874,3.289,3.2913,3.2923,3.2929,3.2945,3.2944,3.2957,3.2961,3.298,3.299,3.2983,3.3014,3.3011,3.3013,3.3007,3.3008,3.3009,3.3006,3.2986,0,0,0,0,0,3.2818,3.2836,3.2859,3.2878,3.2886,3.2903,3.2914,3.2922,3.2939,3.2945,3.2959,3.2973,3.2989,3.2999,3.3015,3.3035,3.3039,3.3042,3.3043,3.3043,3.3045,3.3055,3.3057,3.3039,3.3039,3.3039,0,0,3.2819,3.2837,3.2848,3.2876,3.289,3.2907,3.2909,3.2927,3.2939,3.2947,3.2967,3.2978,3.2995,3.3015,3.3024,3.3023,3.3051,3.3045,3.3045,3.3046,3.3056,3.3058,3.3059,3.304,3.304,3.304,0,0,3.2831,3.2847,3.2864,3.2878,3.2899,3.2911,3.2915,3.2937,3.2945,3.2965,3.2972,3.2985,3.3013,3.3025,3.3034,3.305,3.3053,3.3055,3.3058,3.3068,3.307,3.3071,3.3076,3.3078,3.3056,3.3056,3.3056,0,3.283,3.2857,3.2872,3.289,3.2901,3.2911,3.2928,3.294,3.2965,3.2972,3.2971,3.3005,3.3018,3.304,3.3044,3.3052,3.3056,3.3052,3.3069,3.307,3.3071,3.3076,3.3078,3.3056,3.3056,3.3056,3.3056,0,3.2854,3.2873,3.2884,3.2909,3.2922,3.2939,3.2955,3.2966,3.2973,3.2983,3.3004,3.3019,3.3038,3.3043,3.305,3.3067,3.3065,3.3066,3.3064,3.3073,3.3077,3.3079,3.3056,3.3056,3.3056,3.3056,0,0,3.286,3.2894,3.2898,3.2909,3.2933,3.2947,3.2964,3.2984,3.2993,3.3009,3.3023,3.3045,3.3047,3.3057,3.3065,3.3074,3.3084,3.3074,3.3074,3.3075,3.3103,3.3102,3.3104,3.3087,3.3088,3.3088,3.3101,0,3.2874,3.2907,3.292,3.2946,3.2962,3.2972,3.2987,3.3002,3.3012,3.3027,3.3038,3.3053,3.3054,3.3061,3.307,3.3081,3.309,3.308,3.3098,3.3099,3.3093,3.3107,3.3105,3.3118,3.3103,3.3104,3.3104,0,3.2895,3.2914,3.2941,3.2963,3.2971,3.2984,3.3003,3.3017,3.3034,3.3041,3.3053,3.306,3.3077,3.3074,3.3095,3.3088,3.3096,3.3103,3.3104,3.3105,3.3102,3.3108,3.3122,3.3123,3.3107,3.3107,3.3107,0,3.2896,3.2928,3.2948,3.2958,3.2984,3.2993,3.3004,3.3021,3.3032,3.3048,3.3055,3.3072,3.3081,3.3093,3.3104,3.3101,3.3125,3.3123,3.313,3.3129,3.3134,3.3133,3.3148,3.314,3.314,3.314,3.314,0,3.291,3.2926,3.2949,3.2962,3.298,3.2994,3.3011,3.3022,3.3038,3.3051,3.306,3.3072,3.3086,3.31,3.3108,3.3125,3.3129,3.3133,3.3135,3.3133,3.3132,3.3137,3.3137,3.314,3.314,3.314,3.314,0,3.2914,3.293,3.2953,3.2977,3.2983,3.2995,3.3014,3.3026,3.3037,3.3054,3.3059,3.3076,3.3092,3.3104,3.3125,3.3131,3.3148,3.315,3.3143,3.3144,3.315,3.3149,3.3169,3.3172,3.3161,3.3161,3.3161,0,3.2922,3.2935,3.296,3.2971,3.2983,3.2999,3.3011,3.3025,3.3037,3.3057,3.3066,3.3084,3.3098,3.3124,3.3137,3.3152,3.3155,3.3161,3.3157,3.3154,3.3154,3.3153,3.3154,3.3161,3.3161,3.3161,3.3161,0,3.2934,3.2941,3.2958,3.2979,3.2993,3.3009,3.3025,3.3032,3.3049,3.3061,3.3079,3.3091,3.3113,3.3129,3.3146,3.3156,3.3161,3.3162,3.3165,3.3161,3.3156,3.3159,3.3143,3.3161,3.3161,3.3161,3.3161,3.3161,3.2939,3.2951,3.2971,3.299,3.3004,3.3019,3.3031,3.3044,3.306,3.308,3.3087,3.3105,3.3121,3.3145,3.3154,3.3168,3.3168,3.3171,3.3172,3.3172,3.3172,3.3155,3.3171,3.3171,3.3171,3.3171,3.3171,0,3.2951,3.2965,3.2982,3.3005,3.3019,3.3025,3.3042,3.3054,3.307,3.3085,3.31,3.312,3.3136,3.3151,3.3167,3.3175,3.3178,3.3179,3.3178,3.318,3.3171,3.3167,3.3176,3.3176,3.3176,3.3176,3.3176,3.3176,3.2959,3.2979,3.2989,3.3016,3.3028,3.3048,3.3057,3.307,3.3083,3.3105,3.312,3.313,3.3144,3.3162,3.3176,3.318,3.3185,3.3186,3.319,3.3181,3.3181,3.318,3.3176,3.3187,3.3187,3.3198,3.3198,3.3198]}]]